This demonstration page uses our WeatherBlox Daily Observations layout. Learn more.

Left ArrowRight Arrow

39.51506, -84.39828

Hourly Observations for February 17, 2021

Temp ( °F °C ) Dew Point ( °F °C ) Humidity (%) Winds ( mph kmh ) Pressure ( in mb ) Visibility ( mi km ) Precip ( " mm )
12:15 am 00:15 Clear 1 -17.2 -2 -18.8 87 87 Calm 30.39 1029 10 16 0.00 0.00
12:35 am 00:35 Clear 0 -18 -2 -19 92 92 Calm 30.40 1029 10 16 0.00 0.00
12:55 am 00:55 Clear 1 -17.3 -2 -18.9 87 87 NNW 3 6 30.39 1029 10 16 0.00 0.00
1:15 am 01:15 Clear 1 -17.4 -2 -19.1 87 87 Calm 30.40 1029 10 16 0.00 0.00
1:35 am 01:35 Clear 1 -17.1 -2 -18.7 87 87 Calm 30.41 1030 10 16 0.00 0.00
1:55 am 01:55 Clear 1 -17.1 -1 -18.6 88 88 Calm 30.41 1030 10 16 0.00 0.00
2:15 am 02:15 Partly Cloudy 1 -17.2 -2 -18.8 87 87 Calm 30.43 1030 10 16 0.00 0.00
2:35 am 02:35 Clear 1 -17 -1 -18.6 88 88 Calm 30.45 1031 10 16 0.00 0.00
2:55 am 02:55 Clear 2 -16.6 -1 -18.1 88 88 Calm 30.45 1031 10 16 0.00 0.00
3:15 am 03:15 Clear 2 -16.8 -1 -18.5 87 87 NNE 3 6 30.45 1031 10 16 0.00 0.00
3:35 am 03:35 Clear 1 -17.1 -2 -18.8 87 87 Calm 30.46 1031 10 16 0.00 0.00
3:55 am 03:55 Clear 0 -17.6 -3 -19.3 87 87 Calm 30.46 1031 10 16 0.00 0.00
4:15 am 04:15 Clear 1 -17.5 -3 -19.2 87 87 Calm 30.46 1031 10 16 0.00 0.00
4:35 am 04:35 Clear 1 -17 -1 -18.5 88 88 Calm 30.47 1032 10 16 0.00 0.00
4:55 am 04:55 Clear 1 -17.5 -3 -19.3 86 86 N 3 6 30.48 1032 10 16 0.00 0.00
5:15 am 05:15 Clear 1 -17.4 -2 -19 87 87 Calm 30.48 1032 10 16 0.00 0.00
5:35 am 05:35 Clear 1 -17.5 -2 -19.1 87 87 Calm 30.47 1032 10 16 0.00 0.00
5:55 am 05:55 Clear 1 -17 -1 -18.6 88 88 Calm 30.47 1032 10 16 0.00 0.00
6:15 am 06:15 Clear 1 -17.1 -2 -18.7 87 87 Calm 30.49 1032 10 16 0.00 0.00
6:35 am 06:35 Clear 0 -17.7 -3 -19.4 87 87 NNE 3 6 30.49 1032 10 16 0.00 0.00
6:55 am 06:55 Clear -2 -18.7 -5 -20.6 85 85 NNE 6 9 30.48 1032 10 16 0.00 0.00
7:15 am 07:15 Clear -1 -18.1 -4 -19.8 87 87 N 3 6 30.46 1031 10 16 0.00 0.00
7:35 am 07:35 Sunny 0 -17.8 -3 -19.5 87 87 NE 3 6 30.46 1031 10 16 0.00 0.00
7:55 am 07:55 Sunny 0 -17.7 -3 -19.5 86 86 N 3 6 30.47 1032 10 16 0.00 0.00
8:15 am 08:15 Sunny 0 -17.6 -3 -19.2 87 87 NNE 3 6 30.49 1032 10 16 0.00 0.00
8:35 am 08:35 Partly Cloudy 4 -15.8 1 -17.3 88 88 NE 5 7 30.47 1032 10 16 0.00 0.00
8:55 am 08:55 Partly Cloudy 5 -15 2 -16.4 89 89 Calm 30.49 1032 10 16 0.00 0.00
9:15 am 09:15 Partly Cloudy 7 -13.9 5 -15.1 91 91 Calm 30.51 1033 10 16 0.00 0.00
9:35 am 09:35 Sunny 9 -12.9 7 -14.1 91 91 ENE 6 9 30.47 1032 10 16 0.00 0.00
9:55 am 09:55 Sunny 11 -11.5 9 -12.6 92 92 ESE 3 6 30.50 1033 10 16 0.00 0.00
10:15 am 10:15 Sunny 11 -11.5 9 -12.6 92 92 NE 6 9 30.50 1033 10 16 0.00 0.00
10:35 am 10:35 Sunny 13 -10.3 12 -11.2 93 93 NNE 3 6 30.50 1033 10 16 0.00 0.00
10:55 am 10:55 Sunny 14 -9.8 13 -10.6 94 94 Calm 30.51 1033 10 16 0.00 0.00
11:15 am 11:15 Sunny 15 -9.2 14 -9.9 95 95 W 3 6 30.51 1033 10 16 0.00 0.00
11:35 am 11:35 Sunny 17 -8.3 15 -9.7 90 90 Calm 30.51 1033 10 16 0.00 0.00
11:55 am 11:55 Sunny 19 -7 9 -12.7 64 64 Calm 30.49 1032 10 16 0.00 0.00
12:15 pm 12:15 Sunny 21 -6.2 10 -12.3 62 62 ENE 8 13 30.46 1032 10 16 0.00 0.00
12:35 pm 12:35 Sunny 22 -5.7 9 -12.8 58 58 ENE 9 15 30.45 1031 10 16 0.00 0.00
12:55 pm 12:55 Partly Cloudy 22 -5.3 8 -13.3 54 54 E 3 6 30.45 1031 10 16 0.00 0.00
1:15 pm 13:15 Cloudy 22 -5.3 9 -12.9 56 56 ENE 6 9 30.44 1031 10 16 0.00 0.00
1:35 pm 13:35 Cloudy 22 -5.3 8 -13.3 54 54 E 6 9 30.42 1030 10 16 0.00 0.00
1:55 pm 13:55 Cloudy 23 -5 10 -12.5 56 56 E 8 13 30.41 1030 10 16 0.00 0.00
2:15 pm 14:15 Cloudy 23 -5 9 -12.6 56 56 ENE 13 20 30.39 1029 10 16 0.00 0.00
2:35 pm 14:35 Cloudy 23 -4.8 9 -13 53 53 ENE 7 11 30.39 1029 10 16 0.00 0.00
2:55 pm 14:55 Cloudy 23 -5 8 -13.2 53 53 E 9 15 30.38 1029 10 16 0.00 0.00
3:15 pm 15:15 Cloudy 23 -5.2 9 -12.9 55 55 E 13 20 30.37 1028 10 16 0.00 0.00
3:35 pm 15:35 Cloudy 23 -5.1 8 -13.1 54 54 E 9 15 30.37 1028 10 16 0.00 0.00
3:55 pm 15:55 Cloudy 22 -5.3 8 -13.6 52 52 E 10 17 30.36 1028 10 16 0.00 0.00
4:15 pm 16:15 Cloudy 22 -5.3 7 -13.7 52 52 E 10 17 30.37 1028 10 16 0.00 0.00
4:35 pm 16:35 Cloudy 22 -5.5 8 -13.2 55 55 E 13 20 30.36 1028 10 16 0.00 0.00
4:55 pm 16:55 Cloudy 22 -5.7 8 -13.1 56 56 ENE 9 15 30.39 1029 10 16 0.00 0.00
5:15 pm 17:15 Cloudy 21 -5.9 8 -13.1 57 57 ENE 10 17 30.39 1029 10 16 0.00 0.00
5:35 pm 17:35 Partly Cloudy 21 -6 8 -13.5 56 56 ENE 10 17 30.37 1029 10 16 0.00 0.00
5:55 pm 17:55 Mostly Cloudy 21 -6.1 8 -13.6 56 56 ENE 13 20 30.36 1028 10 16 0.00 0.00
6:15 pm 18:15 Cloudy 21 -6.1 8 -13.2 58 58 ENE 10 17 30.36 1028 10 16 0.00 0.00
6:35 pm 18:35 Cloudy 21 -6.1 8 -13.3 57 57 NE 13 20 30.35 1028 10 16 0.00 0.00
6:55 pm 18:55 Mostly Cloudy 21 -6.2 8 -13.2 58 58 ENE 8 13 30.34 1028 10 16 0.00 0.00
7:15 pm 19:15 Partly Cloudy 21 -6.3 9 -12.7 61 61 ENE 8 13 30.36 1028 10 16 0.00 0.00
7:35 pm 19:35 Mostly Cloudy 21 -6.1 10 -12.4 61 61 ENE 9 15 30.37 1029 10 16 0.00 0.00
7:55 pm 19:55 Mostly Cloudy 21 -6.1 10 -12.1 63 63 NE 8 13 30.37 1029 10 16 0.00 0.00
8:15 pm 20:15 Partly Cloudy 21 -6.1 11 -11.8 64 64 NE 10 17 30.37 1029 10 16 0.00 0.00
8:35 pm 20:35 Partly Cloudy 21 -6 11 -11.6 65 65 NE 7 11 30.38 1029 10 16 0.00 0.00
8:55 pm 20:55 Cloudy 21 -6 12 -11.2 67 67 ENE 8 13 30.39 1029 10 16 0.00 0.00
9:15 pm 21:15 Cloudy 21 -5.9 12 -11.2 67 67 NE 8 13 30.39 1029 10 16 0.00 0.00
9:35 pm 21:35 Cloudy 22 -5.8 12 -11.2 66 66 NNE 6 9 30.37 1029 10 16 0.00 0.00
9:55 pm 21:55 Cloudy 22 -5.8 12 -11 67 67 ENE 10 17 30.34 1027 10 16 0.00 0.00
10:15 pm 22:15 Cloudy 22 -5.8 12 -11 67 67 ENE 6 9 30.37 1029 10 16 0.00 0.00
10:35 pm 22:35 Cloudy 22 -5.7 13 -10.7 68 68 ENE 9 15 30.38 1029 10 16 0.00 0.00
10:55 pm 22:55 Cloudy with Light Snow 22 -5.8 13 -10.3 71 71 ENE 7 11 30.38 1029 10 16 0.00 0.00
11:15 pm 23:15 Cloudy with Light Snow 21 -6 14 -9.9 74 74 ENE 10 17 30.36 1028 4 6 0.00 0.00
11:35 pm 23:35 Cloudy with Light Snow 21 -6.3 16 -9.1 81 81 ENE 6 9 30.37 1029 5 8 0.00 0.00
11:55 pm 23:55 Cloudy with Light Snow 20 -6.4 17 -8.6 85 85 NE 8 13 30.36 1028 5 8 0.00 0.00

Powered by AerisWeather